Regional Weather Roundup
Issued by NWS

Home | Current Version | Previous Version | Graphics & Text | Print | Product List | Glossary On
Versions: 1 2 3 4 5 6 7 8 9 10 11 12 13 14 15 16 17 18 19 20 21 22 23 24 25 26 27 28 29 30 31 32 33 34 35 36 37 38 39 40 41 42 43 44 45 46 47 48 49 50
000
ASUS45 KABQ 230701
RWRNM
WEATHER ROUNDUP FOR NEW MEXICO
NATIONAL WEATHER SERVICE ALBUQUERQUE NM
100 AM MDT SAT AUG 23 2014

NOTE: "FAIR" MEANS FEW OR NO CLOUDS BELOW 12,000 FEET AGL WITH NO
       SIGNIFICANT WEATHER OR OBSTRUCTIONS TO VISION.

      THIS PRODUCT IS RELEASED AS TWO VERSIONS.  ONE VERSION NEAR
      THE TOP OF THE HOUR CONTAINING PRELIMINARY DATA FROM ALBUQUERQUE
      AND OTHER STATIONS.  A FINAL VERSION WITH ADDITIONAL DATA IS
      ISSUED ABOUT 10 MINUTES AFTER THE HOUR.

NMZ501-503-504-510>518-230800-
NORTHWEST PLATEAU/NORTHCENTRAL MOUNTAINS

CITY           SKY/WX    TMP DP  RH WIND       PRES   REMARKS
FARMINGTON     CLEAR     56  51  84 E7        30.13S
LOS ALAMOS     PTCLDY    55  49  81 CALM      30.25S
SANTA FE       PTCLDY    55  52  89 CALM      30.21R
TAOS           PTCLDY    50  45  81 CALM      30.26S
ANGEL FIRE     CLOUDY    48  46  93 CALM      30.31S

$$
NMZ402-403-502-505>509-230800-
WESTCENTRAL MOUNTAINS/SOUTHWEST MOUNTAINS

CITY           SKY/WX    TMP DP  RH WIND       PRES   REMARKS
GALLUP         PTCLDY    60  48  64 SW9       30.20S
SILVER CITY    CLEAR     63  55  77 NW8       30.19S

$$
NMZ407-409-411-412-230800-
SOUTHERN DESERTS

CITY           SKY/WX    TMP DP  RH WIND       PRES   REMARKS
LORDSBURG      FAIR      68  55  64 CALM      30.11S
DEMING         CLEAR     64  61  90 S5        30.11S
LAS CRUCES     PTCLDY    68  61  77 SW7       30.12S
HOLLOMAN AFB   PTCLDY    66  63  88 CALM      30.09F
ALAMOGORDO     PTCLDY    64  59  82 CALM      30.11S
T OR C         MOCLDY    65  58  78 N6        30.13F

$$
NMZ519>523-230800-
CENTRAL VALLEYS/CENTRAL HIGHLANDS

CITY           SKY/WX    TMP DP  RH WIND       PRES   REMARKS
ALBUQUERQUE    MOCLDY    59  56  89 SE5       30.18S
DOUBLE EAGLE   CLEAR     55  53  92 CALM      30.19F
CLINES CORNERS CLOUDY    54  50  86 NW9       30.22F
BELEN          FAIR      58  57  97 CALM      30.16F
SOCORRO        FAIR      62  61  97 CALM      30.14F

$$
NMZ524>526-539-540-230800-
SOUTHCENTRAL MOUNTAINS

CITY           SKY/WX    TMP DP  RH WIND       PRES   REMARKS
RUIDOSO        NOT AVBL

$$
NMZ527>531-230800-
NORTHEAST HIGHLANDS/NORTHEAST PLAINS

CITY           SKY/WX    TMP DP  RH WIND       PRES   REMARKS
LAS VEGAS      PTCLDY    51  45  79 S10       30.19F
RATON          PTCLDY    56  49  77 NE3       30.12F
CLAYTON        LGT RAIN  69  56  62 S15       30.05F

$$
NMZ532>537-230800-
EASTCENTRAL PLAINS

CITY           SKY/WX    TMP DP  RH WIND       PRES   REMARKS
TUCUMCARI      MOCLDY    71  57  61 S10       30.04S
CANNON AFB     NOT AVBL
CLOVIS AIRPORT   N/A     64  61  88 SW5       30.11F

$$
NMZ028-029-538-230800-
SOUTHEAST PLAINS

CITY           SKY/WX    TMP DP  RH WIND       PRES   REMARKS
ROSWELL        MOCLDY    72  62  71 S7        30.05R
ARTESIA        MOCLDY    73  59  60 SW6       30.04S
CARLSBAD       CLOUDY    74  63  68 S6        30.03R
HOBBS          CLOUDY    70  64  83 E8        30.06F


$$


USA.gov is the U.S. government's official web portal to all federal, state and local government web resources and services.